| time (UTC) | temp C | wind direction | speed KPH | gust KPH | rain 1hr cm | rain 24hr cm | rain mn cm | humidity % | barometer mb |
| 20260905073016 | 16 | 0.0 | 0.0 | 0.00 | 0.03 | 0.00 | 81 | 1010.3 | |
| 20260905070018 | 16 | 0.0 | 0.0 | 0.00 | 0.30 | 0.00 | 79 | 1010.6 | |
| 20260905063021 | 16 | 0.0 | 0.0 | 0.00 | 0.94 | 0.00 | 75 | 1010.7 | |
| 20260905060036 | 16 | 0.0 | 0.0 | 0.00 | 1.04 | 0.00 | 73 | 1010.8 | |
| 20260905053015 | 17 | 0.0 | 0.0 | 0.00 | 1.04 | 0.00 | 71 | 1011.1 | |
| 20260905050036 | 17 | 0.0 | 0.0 | 0.00 | 1.04 | 0.00 | 69 | 1011.2 | |
| 20260905043015 | 17 | 0.0 | 0.0 | 0.00 | 1.04 | 0.00 | 69 | 1011.2 | |
| 20260905040015 | 18 | 0.0 | 0.0 | 0.00 | 1.04 | 1.04 | 67 | 1011.3 | |
| 20260905033016 | 19 | 0.0 | 0.0 | 0.00 | 1.04 | 1.04 | 67 | 1011.2 | |
| 20260905030057 | 20 | 0.0 | 0.0 | 0.00 | 1.04 | 1.04 | 67 | 1011.1 | |
| 20260905023022 | 20 | 0.0 | 1.6 | 0.00 | 1.04 | 1.04 | 63 | 1011.1 | |
| 20260905020016 | 20 | 0.0 | 1.6 | 0.00 | 1.04 | 1.04 | 64 | 1011.1 | |
| 20260905013015 | 21 | 0.0 | 1.6 | 0.00 | 1.04 | 1.04 | 63 | 1011.1 | |
| 20260905010015 | 21 | 0.0 | 1.6 | 0.00 | 1.04 | 1.04 | 62 | 1011.0 | |
| 20260905003035 | 21 | 0.0 | 0.0 | 0.00 | 1.04 | 1.04 | 62 | 1011.0 | |
| 20260905000015 | 22 | 0.0 | 0.0 | 0.00 | 1.04 | 1.04 | 61 | 1010.6 | |
| 20260904233015 | 23 | 0.0 | 0.0 | 0.00 | 1.04 | 1.04 | 59 | 1010.4 | |
| 20260904230015 | 24 | 0.0 | 0.0 | 0.00 | 1.04 | 1.04 | 56 | 1010.4 | |
| 20260904223015 | 26 | 0.0 | 1.6 | 0.00 | 1.04 | 1.04 | 48 | 1010.3 | |
| 20260904220037 | 26 | 0.0 | 3.2 | 0.00 | 1.04 | 1.04 | 45 | 1010.2 | |
| 20260904213015 | 26 | 0.0 | 3.2 | 0.00 | 1.04 | 1.04 | 46 | 1010.1 | |
| 20260904210015 | 27 | 0.0 | 4.8 | 0.00 | 1.04 | 1.04 | 44 | 1010.3 | |
| 20260904203017 | 27 | 23 | 1.6 | 4.8 | 0.00 | 1.04 | 1.04 | 44 | 1010.5 |
| 20260904200015 | 27 | 45 | 1.6 | 6.4 | 0.00 | 1.04 | 1.04 | 42 | 1010.6 |
| 20260904193015 | 28 | 45 | 1.6 | 6.4 | 0.00 | 1.04 | 1.04 | 41 | 1010.7 |
| 20260904190017 | 29 | 45 | 1.6 | 4.8 | 0.00 | 1.04 | 1.04 | 39 | 1010.8 |
| 20260904183017 | 28 | 23 | 3.2 | 9.7 | 0.00 | 1.04 | 1.04 | 41 | 1011.2 |
| 20260904180037 | 28 | 23 | 1.6 | 8.0 | 0.00 | 1.04 | 1.04 | 45 | 1011.3 |
| 20260904173017 | 27 | 23 | 1.6 | 9.7 | 0.00 | 1.04 | 1.04 | 52 | 1011.3 |
| 20260904170017 | 26 | 0 | 1.6 | 6.4 | 0.00 | 1.04 | 1.04 | 53 | 1011.4 |
| 20260904163016 | 26 | 23 | 1.6 | 8.0 | 0.00 | 1.04 | 1.04 | 57 | 1011.5 |
| 20260904160017 | 26 | 0 | 1.6 | 8.0 | 0.00 | 1.04 | 1.04 | 60 | 1011.8 |
| 20260904153016 | 25 | 0 | 1.6 | 6.4 | 0.00 | 1.04 | 1.04 | 62 | 1012.2 |
| 20260904150016 | 24 | 23 | 1.6 | 4.8 | 0.00 | 1.04 | 1.04 | 70 | 1012.5 |
| 20260904143016 | 23 | 68 | 1.6 | 4.8 | 0.00 | 1.04 | 1.04 | 75 | 1012.4 |
| 20260904140016 | 23 | 68 | 1.6 | 6.4 | 0.00 | 1.04 | 1.04 | 76 | 1012.4 |
| 20260904133016 | 23 | 0 | 1.6 | 6.4 | 0.00 | 1.04 | 1.04 | 78 | 1012.3 |
| 20260904130016 | 22 | 0.0 | 3.2 | 0.00 | 1.04 | 1.04 | 82 | 1012.2 | |
| 20260904123016 | 22 | 0.0 | 1.6 | 0.00 | 1.04 | 1.04 | 83 | 1012.1 | |
| 20260904120016 | 21 | 0.0 | 1.6 | 0.00 | 1.04 | 1.04 | 84 | 1011.8 | |
| 20260904113016 | 21 | 0.0 | 0.0 | 0.00 | 1.04 | 1.04 | 84 | 1011.8 | |
| 20260904110017 | 21 | 0.0 | 0.0 | 0.00 | 1.04 | 1.04 | 84 | 1011.5 | |
| 20260904103017 | 20 | 0.0 | 0.0 | 0.00 | 1.04 | 1.04 | 84 | 1011.2 | |
| 20260904100016 | 21 | 0.0 | 1.6 | 0.00 | 1.04 | 1.04 | 84 | 1011.3 | |
| 20260904093040 | 21 | 0.0 | 0.0 | 0.00 | 1.04 | 1.04 | 84 | 1011.0 | |
| 20260904090016 | 21 | 0.0 | 0.0 | 0.00 | 1.04 | 1.04 | 84 | 1010.9 | |
| 20260904083016 | 21 | 0.0 | 0.0 | 0.03 | 1.04 | 1.04 | 84 | 1010.4 | |
| 20260904080016 | 21 | 0.0 | 1.6 | 0.30 | 1.09 | 1.04 | 84 | 1010.3 |